Hourly Data Report for October 21, 2016

All times are specified in Local Standard Time (LST). Add 1 hour to adjust for Daylight Saving Time where and when it is observed.

KUGLUKTUK A
NUNAVUT

67°49'00.000" N
115°08'38.000" W
22.60 m
2300903
71938
YCO

Download Data

Hourly Data (October 2016)
Hourly Data Report for October 21, 2016
Temp Definition
°C
Dew Point Temp Definition
°C
Rel Hum Definition
%
Wind Dir Definition
10's deg

Wind Spd Definition
km/h
Visibility Definition
km
Stn Press Definition
kPa
Hmdx Definition


Wind Chill Definition


Weather Definition


TIME
00:00 Legend Double Dagger -8.4 -10.0 88 18 5 24.1 100.92   -11 LegendNANA
01:00 Legend Double Dagger -7.5 -9.3 87 12 7 24.1 100.91   -11 LegendNANA
02:00 Legend Double Dagger -6.3 -8.4 85 17 7 24.1 100.92   -10 Cloudy
03:00 Legend Double Dagger -5.1 -7.2 85 13 8 24.1 100.89   -9 LegendNANA
04:00 Legend Double Dagger -4.1 -6.1 86 12 12 24.1 100.91   -9 LegendNANA
05:00 Legend Double Dagger -3.8 -5.8 86 12 6 24.1 100.90   -6 Cloudy
06:00 Legend Double Dagger -4.0 -5.7 88 20 4 24.1 100.91   -6 LegendNANA
07:00 Legend Double Dagger -5.1 -6.9 87 26 14 24.1 100.92   -10 LegendNANA
08:00 Legend Double Dagger -3.5 -6.1 82 0 1 24.1 100.93   -4 Cloudy
09:00 Legend Double Dagger -4.0 -5.9 87 12 9 24.1 100.94   -8 LegendNANA
10:00 Legend Double Dagger -2.5 -5.5 80 13 7 24.1 100.95   -5 LegendNANA
11:00 Legend Double Dagger -2.3 -6.0 76 16 24 24.1 100.97   -9 Cloudy
12:00 Legend Double Dagger -2.9 -6.6 76 15 21 24.1 101.01   -9 LegendNANA
13:00 Legend Double Dagger -3.8 -7.4 76 18 21 24.1 101.00   -10 LegendNANA
14:00 Legend Double Dagger -6.1 -9.7 76 21 17 24.1 101.02   -12 Mainly Clear
15:00 Legend Double Dagger -7.0 -10.4 77 19 22 24.1 101.02   -14 LegendNANA
16:00 Legend Double Dagger -8.1 -11.3 78 19 23 24.1 101.04   -16 LegendNANA
17:00 Legend Double Dagger -8.8 -12.1 77 19 31 24.1 101.02   -18 Mainly Clear
18:00 Legend Double Dagger -10.6 -13.6 79 19 18 24.1 101.03   -18 LegendNANA
19:00 Legend Double Dagger -11.3 -13.8 82 19 18 24.1 101.05   -19 LegendNANA
20:00 Legend Double Dagger -10.7 -13.7 79 20 22 24.1 101.04   -19 Clear
21:00 Legend Double Dagger -11.7 -14.3 81 19 18 24.1 101.07   -20 LegendNANA
22:00 Legend Double Dagger -11.9 -14.1 84 19 16 24.1 101.09   -19 LegendNANA
23:00 Legend Double Dagger -9.5 -12.2 81 19 21 24.1 101.11   -17 Mainly Clear

Notes on Data Quality.

Legend

  • E = Estimated
  • M = Missing
  • NA = Not Available
  • ‡ = Partner data that is not subject to review by the National Climate Archives
Date modified: